Clovis, NM

8:17 PM MDT on June 22, 2017 (GMT -0600)
Clovis Municipal

Weather History for KCVN - January, 2014

Change the Weather History Date:

Monday, January 13, 2014

  Actual Average Record
Temperature  
Mean Temperature 38 °F -  
Max Temperature 55 °F 50 °F 73 °F (1928)
Min Temperature 21 °F 22 °F -12 °F (1963)
Degree Days  
Heating Degree Days 27    
Moisture  
Dew Point 8 °F    
Average Humidity 30    
Maximum Humidity 47    
Minimum Humidity 14    
Precipitation  
Precipitation 0.00 in - - ()
Sea Level Pressure  
Sea Level Pressure 30.10 in    
Wind  
Wind Speed 11 mph (WNW)    
Max Wind Speed 20 mph    
Max Gust Speed 24 mph    
Visibility 10 miles    
Events      
Averages and records for this station are not official NWS values.
T = Trace of Precipitation, MM = Missing Value Source: NWS Daily Summary

Daily Weather History Graph

Daily Weather History Graph

Search for Another Location

Airport or City:

Trip Planner

Search our weather history database for the weather conditions in past years. The results will help you decide how hot, cold, wet, or windy it might be!

Date:

Astronomy

Jan. 13, 2014 Rise Set
Actual Time 6:58 AM MST 5:03 PM MST
Civil Twilight 6:31 AM MST 5:30 PM MST
Nautical Twilight 6:00 AM MST 6:01 PM MST
Astronomical Twilight 5:30 AM MST 6:32 PM MST
Moon 3:19 PM MST (1/13) 4:50 AM MST (1/13)
Length of Visible Light 10h 59m
Length of Day
10h 04m
Waxing Gibbous, 95% of the Moon is Illuminated
Jan 13
Waxing Gibbous
Jan 15
Full
Jan 23
Last Quarter
Jan 30
New
Feb 6
First Quarter

Hourly Weather History & Observations

Time (MST) Temp. Windchill Dew Point Humidity Pressure Visibility Wind Dir Wind Speed Gust Speed Precip Events Conditions
12:15 AM 30.2 °F 24.3 °F 3.2 °F 32% 30.07 in 10.0 mi WNW 5.8 mph - N/A   Clear
12:35 AM 30.2 °F 21.9 °F 3.2 °F 32% 30.07 in 10.0 mi WNW 9.2 mph - N/A   Clear
12:55 AM 30.2 °F 21.9 °F 6.8 °F 37% 30.07 in 10.0 mi WNW 9.2 mph - N/A   Clear
1:15 AM 30.2 °F 21.9 °F 8.6 °F 40% 30.08 in 10.0 mi WNW 9.2 mph - N/A   Clear
1:35 AM 28.4 °F 19.7 °F 6.8 °F 40% 30.08 in 10.0 mi WNW 9.2 mph - N/A   Clear
1:55 AM 28.4 °F 20.4 °F 8.6 °F 43% 30.08 in 10.0 mi West 8.1 mph - N/A   Clear
2:15 AM 26.6 °F 18.2 °F 6.8 °F 43% 30.09 in 10.0 mi West 8.1 mph - N/A   Clear
2:35 AM 24.8 °F 14.6 °F 6.8 °F 46% 30.09 in 10.0 mi WNW 10.4 mph - N/A   Clear
2:55 AM 26.6 °F 16.8 °F 8.6 °F 47% 30.09 in 10.0 mi WNW 10.4 mph - N/A   Clear
3:15 AM 26.6 °F 17.5 °F 6.8 °F 43% 30.10 in 10.0 mi WNW 9.2 mph - N/A   Clear
3:35 AM 26.6 °F 16.8 °F 8.6 °F 47% 30.10 in 10.0 mi WNW 10.4 mph - N/A   Clear
3:55 AM 26.6 °F 16.2 °F 6.8 °F 43% 30.11 in 10.0 mi West 11.5 mph - N/A   Clear
4:15 AM 26.6 °F 17.5 °F 5.0 °F 40% 30.11 in 10.0 mi West 9.2 mph - N/A   Clear
4:35 AM 24.8 °F 12.9 °F 5.0 °F 43% 30.12 in 10.0 mi WNW 13.8 mph - N/A   Clear
4:55 AM 26.6 °F 16.2 °F 6.8 °F 43% 30.12 in 10.0 mi WNW 11.5 mph - N/A   Clear
5:15 AM 26.6 °F 16.8 °F 5.0 °F 40% 30.13 in 10.0 mi NW 10.4 mph - N/A   Clear
5:35 AM 24.8 °F 14.0 °F 3.2 °F 40% 30.13 in 10.0 mi WNW 11.5 mph - N/A   Clear
5:55 AM 28.4 °F 18.5 °F 8.6 °F 43% 30.13 in 10.0 mi NW 11.5 mph - N/A   Clear
6:15 AM 26.6 °F 16.2 °F 3.2 °F 37% 30.13 in 10.0 mi NW 11.5 mph - N/A   Clear
6:35 AM 24.8 °F 15.3 °F 5.0 °F 43% 30.14 in 10.0 mi WNW 9.2 mph - N/A   Clear
6:55 AM 24.8 °F 14.6 °F 5.0 °F 43% 30.14 in 10.0 mi WNW 10.4 mph - N/A   Clear
7:15 AM 21.2 °F 11.7 °F 3.2 °F 46% 30.14 in 10.0 mi WNW 8.1 mph - N/A   Clear
7:35 AM 23.0 °F 13.9 °F 5.0 °F 46% 30.15 in 10.0 mi WNW 8.1 mph - N/A   Clear
7:55 AM 26.6 °F 18.2 °F 8.6 °F 47% 30.16 in 10.0 mi WNW 8.1 mph - N/A   Clear
8:15 AM 32.0 °F 22.5 °F 8.6 °F 38% 30.17 in 10.0 mi WNW 12.7 mph - N/A   Clear
8:35 AM 35.6 °F 27.1 °F 10.4 °F 35% 30.18 in 10.0 mi WNW 12.7 mph - N/A   Clear
8:55 AM 39.2 °F 30.8 °F 8.6 °F 28% 30.19 in 10.0 mi WNW 15.0 mph - N/A   Clear
9:15 AM 42.8 °F 34.8 °F 10.4 °F 27% 30.19 in 10.0 mi WNW 17.3 mph - N/A   Clear
9:35 AM 42.8 °F 34.8 °F 10.4 °F 27% 30.20 in 10.0 mi WNW 17.3 mph - N/A   Clear
9:55 AM 44.6 °F 37.2 °F 10.4 °F 25% 30.20 in 10.0 mi WNW 17.3 mph - N/A   Clear
10:15 AM 46.4 °F 39.8 °F 10.4 °F 23% 30.19 in 10.0 mi WNW 16.1 mph 20.7 mph N/A   Clear
10:35 AM 48.2 °F - 8.6 °F 20% 30.18 in 10.0 mi WNW 18.4 mph 23.0 mph N/A   Clear
10:55 AM 48.2 °F - 6.8 °F 19% 30.16 in 10.0 mi West 17.3 mph - N/A   Clear
11:15 AM 50.0 °F - 8.6 °F 19% 30.16 in 10.0 mi WNW 17.3 mph - N/A   Clear
11:35 AM 50.0 °F - 6.8 °F 17% 30.15 in 10.0 mi WNW 15.0 mph 19.6 mph N/A   Clear
11:55 AM 51.8 °F - 6.8 °F 16% 30.13 in 10.0 mi WNW 10.4 mph - N/A   Clear
12:15 PM 51.8 °F - 6.8 °F 16% 30.12 in 10.0 mi West 9.2 mph 17.3 mph N/A   Clear
12:35 PM 51.8 °F - 6.8 °F 16% 30.11 in 10.0 mi WNW 17.3 mph - N/A   Clear
12:55 PM 53.6 °F - 6.8 °F 15% 30.11 in 10.0 mi WNW 13.8 mph - N/A   Clear
1:15 PM 53.6 °F - 6.8 °F 15% 30.10 in 10.0 mi WNW 15.0 mph - N/A   Clear
1:35 PM 53.6 °F - 6.8 °F 15% 30.08 in 10.0 mi WNW 15.0 mph - N/A   Clear
1:55 PM 53.6 °F - 6.8 °F 15% 30.08 in 10.0 mi West 17.3 mph - N/A   Clear
2:15 PM 53.6 °F - 6.8 °F 15% 30.08 in 10.0 mi West 19.6 mph 24.2 mph N/A   Clear
2:35 PM 55.4 °F - 6.8 °F 14% 30.07 in 10.0 mi West 12.7 mph 20.7 mph N/A   Clear
2:55 PM 55.4 °F - 6.8 °F 14% 30.07 in 10.0 mi West 11.5 mph 21.9 mph N/A   Clear
3:15 PM 55.4 °F - 6.8 °F 14% 30.08 in 10.0 mi West 18.4 mph - N/A   Clear
3:35 PM 55.4 °F - 6.8 °F 14% 30.08 in 10.0 mi West 13.8 mph - N/A   Clear
3:55 PM 53.6 °F - 6.8 °F 15% 30.08 in 10.0 mi West 13.8 mph - N/A   Clear
4:15 PM 53.6 °F - 6.8 °F 15% 30.08 in 10.0 mi West 15.0 mph - N/A   Clear
4:35 PM 51.8 °F - 6.8 °F 16% 30.08 in 10.0 mi West 10.4 mph - N/A   Clear
4:55 PM 48.2 °F - 6.8 °F 19% 30.07 in 10.0 mi WSW 8.1 mph - N/A   Clear
5:15 PM 44.6 °F 40.2 °F 3.2 °F 18% 30.07 in 10.0 mi WSW 8.1 mph - N/A   Clear
5:35 PM 42.8 °F 38.0 °F 3.2 °F 19% 30.08 in 10.0 mi WSW 8.1 mph - N/A   Clear
5:55 PM 42.8 °F 38.0 °F 6.8 °F 23% 30.08 in 10.0 mi WSW 8.1 mph - N/A   Clear
6:15 PM 37.4 °F 30.3 °F 5.0 °F 26% 30.07 in 10.0 mi SW 10.4 mph - N/A   Clear
6:35 PM 35.6 °F 27.1 °F 6.8 °F 30% 30.07 in 10.0 mi SW 12.7 mph - N/A   Clear
6:55 PM 37.4 °F 30.3 °F 8.6 °F 30% 30.06 in 10.0 mi West 10.4 mph - N/A   Clear
7:15 PM 35.6 °F 28.0 °F 8.6 °F 33% 30.07 in 10.0 mi WSW 10.4 mph - N/A   Clear
7:35 PM 39.2 °F 32.0 °F 12.2 °F 33% 30.06 in 10.0 mi West 11.5 mph - N/A   Clear
7:55 PM 39.2 °F 32.0 °F 12.2 °F 33% 30.06 in 10.0 mi WSW 11.5 mph - N/A   Clear
8:15 PM 33.8 °F 25.8 °F 8.6 °F 35% 30.06 in 10.0 mi SW 10.4 mph - N/A   Clear
8:35 PM 39.2 °F 30.8 °F 14.0 °F 36% 30.06 in 10.0 mi West 15.0 mph - N/A   Clear
8:55 PM 37.4 °F 29.8 °F 10.4 °F 33% 30.06 in 10.0 mi West 11.5 mph - N/A   Clear
9:15 PM 37.4 °F 28.5 °F 12.2 °F 36% 30.06 in 10.0 mi West 15.0 mph - N/A   Clear
9:35 PM 37.4 °F 29.8 °F 12.2 °F 36% 30.06 in 10.0 mi WNW 11.5 mph - N/A   Clear
9:55 PM 39.2 °F 31.2 °F 12.2 °F 33% 30.06 in 10.0 mi West 13.8 mph - N/A   Clear
10:15 PM 39.2 °F 30.5 °F 12.2 °F 33% 30.07 in 10.0 mi WNW 16.1 mph - N/A   Clear
10:35 PM 39.2 °F 30.5 °F 12.2 °F 33% 30.06 in 10.0 mi WNW 16.1 mph - N/A   Clear
10:55 PM 39.2 °F 30.5 °F 12.2 °F 33% 30.06 in 10.0 mi WNW 16.1 mph - N/A   Clear
11:15 PM 39.2 °F 30.2 °F 14.0 °F 36% 30.04 in 10.0 mi WNW 17.3 mph - N/A   Clear
11:35 PM 39.2 °F 30.8 °F 14.0 °F 36% 30.05 in 10.0 mi WNW 15.0 mph - N/A   Clear
11:55 PM 37.4 °F 28.9 °F 12.2 °F 36% 30.05 in 10.0 mi WNW 13.8 mph - N/A   Clear